FW6251 Weather Reports


time (UTC)temp
C
wind
direction
speed
KPH
gust
KPH
rain 1hr
cm
rain 24hr
cm
rain mn
cm
humidity
%
barometer
mb
20260902140009 29 189 0.0 8.0 0.00 0.00 0.00 64 1016.3
20260902134529 29 207 0.0 9.7 0.00 0.00 0.00 63 1016.4
20260902133047 30 268 0.0 14.5 0.00 0.00 0.00 67 1016.2
20260902131611 30 263 0.0 12.9 0.00 0.00 0.00 65 1016.3
20260902130107 31 199 0.0 27.4 0.00 0.00 0.00 61 1016.3
20260902124545 32 209 1.6 25.7 0.00 0.00 0.00 47 1016.4
20260902123100 32 149 9.7 27.4 0.00 0.00 0.00 47 1016.5
20260902121558 32 223 3.2 19.3 0.00 0.00 0.00 47 1016.6
20260902120100 32 189 12.9 25.7 0.00 0.00 0.00 47 1016.8
20260902114554 32 215 6.4 24.1 0.00 0.00 0.00 47 1017.0
20260902113037 31 205 11.3 20.9 0.00 0.00 0.00 48 1017.2
20260902111545 31 196 3.2 20.9 0.00 0.00 0.00 49 1017.5
20260902110008 31 200 9.7 20.9 0.00 0.00 0.00 49 1017.8
20260902104509 31 211 6.4 19.3 0.00 0.00 0.00 50 1018.2
20260902103004 31 138 3.2 22.5 0.00 0.00 0.00 52 1018.4
20260902101510 30 205 6.4 22.5 0.00 0.00 0.00 53 1018.7
20260902100023 30 143 6.4 19.3 0.00 0.00 0.00 53 1019.1
20260902094511 30 123 4.8 27.4 0.00 0.00 0.00 54 1019.5
20260902093015 29 151 6.4 19.3 0.00 0.00 0.00 55 1019.9
20260902091503 28 138 4.8 22.5 0.00 0.00 0.00 58 1020.1
20260902090059 28 155 3.2 16.1 0.00 0.00 0.00 61 1020.4
20260902084548 27 132 1.6 16.1 0.00 0.00 0.00 63 1020.7
20260902083051 27 132 3.2 16.1 0.00 0.00 0.00 64 1021.0
20260902081548 26 194 1.6 16.1 0.00 0.00 0.00 67 1021.1
20260902080052 25 163 3.2 14.5 0.00 0.00 0.00 69 1021.3
20260902074531 25 184 1.6 17.7 0.00 0.00 0.00 73 1021.4
20260902073029 24 165 3.2 14.5 0.00 0.00 0.00 75 1021.4
20260902071537 23 121 3.2 14.5 0.00 0.00 0.00 76 1021.5
20260902070120 23 201 3.2 14.5 0.00 0.00 0.00 78 1021.6
20260902064555 22 140 1.6 16.1 0.00 0.00 0.00 80 1021.4
20260902063026 22 146 0.0 16.1 0.00 0.00 0.00 84 1021.4
20260902061517 21 170 0.0 12.9 0.00 0.00 0.00 87 1021.3
20260902060009 21 150 1.6 8.0 0.00 0.00 0.00 89 1021.3
20260902054530 20 148 0.0 12.9 0.00 0.00 0.00 90 1021.3
20260902053037 20 130 1.6 8.0 0.00 0.00 0.00 91 1021.3
20260902051540 20 205 4.8 11.3 0.00 0.00 0.00 92 1021.3
20260902050017 20 156 3.2 8.0 0.00 0.00 0.00 93 1021.1
20260902044536 19 137 0.0 4.8 0.00 0.00 0.00 93 1021.1
20260902043052 19 132 1.6 4.8 0.00 0.00 0.00 93 1020.9
20260902041502 19 132 1.6 3.2 0.00 0.00 0.00 92 1020.7
20260902040123 19 132 1.6 3.2 0.00 0.00 0.00 92 1020.7
20260902034518 19 132 0.0 3.2 0.00 0.00 0.00 92 1020.6
20260902033036 20 132 0.0 3.2 0.00 0.00 0.00 92 1020.5
20260902031550 20 132 0.0 1.6 0.00 0.00 0.00 92 1020.3
20260902030114 20 132 1.6 3.2 0.00 0.00 0.00 92 1020.2
20260902024501 20 132 1.6 4.8 0.00 0.00 0.00 92 1020.1
20260902023034 20 132 1.6 4.8 0.00 0.00 0.00 92 1020.0
20260902021547 20 132 1.6 6.4 0.00 0.00 0.00 92 1019.9
20260902020023 20 128 3.2 6.4 0.00 0.00 0.00 92 1020.0
20260902014546 20 92 1.6 4.8 0.00 0.00 0.00 92 1020.1
20260902013046 20 90 1.6 4.8 0.00 0.00 0.00 92 1020.0
20260902011556 20 95 3.2 6.4 0.00 0.00 0.00 92 1020.1
20260902004557 21 82 1.6 4.8 0.00 0.00 0.00 91 1020.1
20260902003004 21 81 3.2 4.8 0.00 0.00 0.00 91 1020.2
20260902001528 21 94 1.6 6.4 0.00 0.00 0.00 90 1020.3
20260902000036 21 158 1.6 6.4 0.00 0.00 0.00 90 1020.4
20260901234535 21 180 1.6 3.2 0.00 0.00 0.00 90 1020.5
20260901233055 21 184 0.0 9.7 0.00 0.00 0.00 91 1020.6
20260901231511 21 164 3.2 8.0 0.00 0.00 0.00 92 1020.7
20260901230007 21 142 1.6 6.4 0.00 0.00 0.00 92 1020.7
20260901224518 21 157 3.2 11.3 0.00 0.00 0.00 92 1020.6
20260901223025 22 195 6.4 12.9 0.00 0.00 0.00 92 1020.5
20260901221539 22 166 11.3 20.9 0.00 0.00 0.00 92 1020.4
20260901220111 22 223 12.9 22.5 0.00 0.00 0.00 92 1020.4
20260901214535 22 219 8.0 20.9 0.00 0.00 0.00 92 1020.4
20260901213101 22 170 12.9 22.5 0.00 0.00 0.00 92 1020.5
20260901211556 22 198 12.9 24.1 0.00 0.00 0.00 93 1020.5
20260901210106 22 199 8.0 22.5 0.00 0.00 0.00 93 1020.5
20260901204614 22 214 11.3 19.3 0.00 0.00 0.00 93 1020.6
20260901203026 22 188 8.0 19.3 0.00 0.00 0.00 93 1020.5
20260901201527 22 197 11.3 24.1 0.00 0.00 0.00 94 1020.5
20260901200018 22 227 9.7 20.9 0.00 0.00 0.00 94 1020.6
20260901194544 22 202 9.7 19.3 0.00 0.00 0.00 94 1020.6
20260901193106 22 219 12.9 20.9 0.00 0.00 0.00 93 1020.5
20260901191504 22 217 8.0 20.9 0.00 0.00 0.00 93 1020.5
20260901190115 22 217 3.2 19.3 0.00 0.00 0.00 92 1020.4
20260901184524 22 209 6.4 19.3 0.00 0.00 0.00 92 1020.4
20260901183037 22 207 3.2 19.3 0.00 0.00 0.00 91 1020.4
20260901181547 22 236 4.8 16.1 0.00 0.00 0.00 90 1020.2
20260901180056 22 201 4.8 17.7 0.00 0.00 0.00 90 1020.0
20260901174542 22 197 3.2 11.3 0.00 0.00 0.00 89 1020.0
20260901173054 22 228 4.8 14.5 0.00 0.00 0.00 88 1019.8
20260901171601 22 202 1.6 14.5 0.00 0.00 0.00 89 1019.6
20260901170111 22 198 4.8 14.5 0.00 0.00 0.00 90 1019.5
20260901164524 22 209 3.2 11.3 0.00 0.00 0.00 90 1019.4
20260901163037 22 227 4.8 12.9 0.00 0.00 0.00 90 1019.3
20260901161557 22 206 1.6 12.9 0.00 0.00 0.00 90 1019.3
20260901160104 23 198 1.6 16.1 0.00 0.00 0.00 90 1019.2
20260901154604 23 209 1.6 12.9 0.00 0.00 0.00 90 1019.1
20260901153031 23 195 3.2 12.9 0.00 0.00 0.00 89 1019.0
20260901151558 23 243 0.0 20.9 0.00 0.00 0.00 89 1018.9
20260901150058 23 231 4.8 16.1 0.00 0.00 0.00 88 1018.9
20260901144552 24 252 4.8 14.5 0.00 0.00 0.00 86 1018.8
20260901143001 24 242 1.6 16.1 0.00 0.00 0.00 84 1018.9
20260901141531 25 263 8.0 16.1 0.00 0.00 0.00 82 1018.9